TimeCDT,TemperatureF,Dew PointF,Humidity,Sea Level PressureIn,VisibilityMPH,Wind Direction,Wind SpeedMPH,Gust SpeedMPH,PrecipitationIn,Events,Conditions,WindDirDegrees,DateUTC
12:05 AM,57.2,53.6,88,29.61,10.0,ENE,13.8,24.2,0.00,,Overcast,70,2013-05-20 05:05:00
12:23 AM,55.4,53.6,94,29.61,4.0,East,11.5,21.9,0.00,,Overcast,80,2013-05-20 05:23:00
12:53 AM,55.9,54.0,93,29.62,6.0,East,6.9,-,0.00,,Overcast,80,2013-05-20 05:53:00
1:02 AM,55.4,53.6,94,29.62,5.0,East,8.1,-,N/A,,Overcast,90,2013-05-20 06:02:00
1:15 AM,55.4,55.4,100,29.61,2.0,East,6.9,-,0.01,Rain,Light Rain,80,2013-05-20 06:15:00
1:53 AM,55.0,54.0,96,29.59,2.5,East,6.9,-,0.04,Rain,Light Rain,80,2013-05-20 06:53:00
2:02 AM,55.4,53.6,94,29.59,3.0,East,6.9,-,0.01,Rain,Light Rain,80,2013-05-20 07:02:00
2:12 AM,55.4,53.6,94,29.58,2.5,East,8.1,-,0.01,Rain,Light Rain,80,2013-05-20 07:12:00
2:53 AM,55.4,53.6,94,29.56,2.5,East,6.9,-,N/A,Rain,Light Rain,90,2013-05-20 07:53:00
3:03 AM,55.4,53.6,94,29.55,4.0,East,5.8,-,0.01,Rain,Light Rain,80,2013-05-20 08:03:00
3:53 AM,55.0,54.0,96,29.54,6.0,East,11.5,-,0.01,,Overcast,100,2013-05-20 08:53:00
4:33 AM,55.4,53.6,94,29.54,2.0,East,9.2,-,N/A,,Overcast,100,2013-05-20 09:33:00
4:53 AM,55.0,54.0,96,29.53,2.0,East,12.7,-,0.00,Rain,Light Rain,100,2013-05-20 09:53:00
5:34 AM,53.6,53.6,100,29.53,5.0,East,12.7,-,0.08,Rain,Light Rain,100,2013-05-20 10:34:00
5:53 AM,54.0,53.1,97,29.52,7.0,East,13.8,-,0.08,,Overcast,90,2013-05-20 10:53:00
6:53 AM,54.0,52.0,93,29.53,4.0,East,16.1,21.9,0.04,Rain,Light Rain,90,2013-05-20 11:53:00
7:04 AM,53.6,51.8,94,29.52,4.0,East,11.5,24.2,0.01,Rain,Light Rain,90,2013-05-20 12:04:00
7:53 AM,53.1,51.1,93,29.53,4.0,East,15.0,25.3,0.09,Rain,Light Rain,90,2013-05-20 12:53:00
8:53 AM,53.1,51.1,93,29.53,10.0,East,10.4,21.9,0.04,Rain,Light Rain,90,2013-05-20 13:53:00
9:53 AM,52.0,51.1,97,29.53,7.0,East,10.4,-,0.07,Rain,Light Rain,90,2013-05-20 14:53:00
10:53 AM,53.1,51.1,93,29.52,10.0,East,11.5,-,0.03,,Overcast,100,2013-05-20 15:53:00
11:07 AM,53.6,51.8,94,29.51,1.8,East,10.4,-,0.01,Rain,Light Rain,90,2013-05-20 16:07:00
11:16 AM,53.6,51.8,94,29.51,3.0,East,10.4,-,0.01,Rain,Light Rain,90,2013-05-20 16:16:00
11:53 AM,54.0,52.0,93,29.52,2.5,East,10.4,-,0.02,Rain,Light Rain,90,2013-05-20 16:53:00
12:03 PM,53.6,51.8,94,29.51,8.0,East,10.4,-,0.00,Rain,Light Rain,100,2013-05-20 17:03:00
12:37 PM,53.6,51.8,94,29.51,10.0,East,10.4,-,0.00,,Overcast,100,2013-05-20 17:37:00
12:53 PM,53.1,52.0,96,29.52,8.0,ESE,12.7,-,0.00,Rain,Light Rain,120,2013-05-20 17:53:00
1:30 PM,53.6,51.8,94,29.51,9.0,East,12.7,-,0.00,,Overcast,100,2013-05-20 18:30:00
1:53 PM,54.0,52.0,93,29.52,5.0,ESE,11.5,16.1,0.01,Rain,Light Rain,110,2013-05-20 18:53:00
2:12 PM,53.6,53.6,100,29.51,1.8,East,8.1,-,0.03,Rain,Heavy Rain,100,2013-05-20 19:12:00
2:24 PM,53.6,53.6,100,29.51,3.0,East,11.5,-,0.05,Rain,Light Rain,100,2013-05-20 19:24:00
2:53 PM,55.0,53.1,93,29.52,10.0,East,11.5,-,0.05,,Overcast,90,2013-05-20 19:53:00
3:53 PM,55.9,55.0,97,29.53,9.0,East,6.9,-,N/A,,Overcast,90,2013-05-20 20:53:00
4:01 PM,55.4,53.6,94,29.52,9.0,East,10.4,16.1,N/A,,Overcast,90,2013-05-20 21:01:00
4:46 PM,55.4,53.6,94,29.52,3.0,East,11.5,18.4,0.07,Rain,Rain,100,2013-05-20 21:46:00
4:53 PM,55.9,55.0,97,29.53,4.0,East,12.7,-,0.08,Rain,Rain,90,2013-05-20 21:53:00
5:53 PM,57.0,55.9,96,29.54,10.0,East,12.7,20.7,0.02,,Overcast,90,2013-05-20 22:53:00
6:53 PM,55.9,54.0,93,29.57,10.0,East,16.1,-,N/A,,Overcast,100,2013-05-20 23:53:00
7:04 PM,55.4,53.6,94,29.57,1.5,East,10.4,21.9,0.11,Rain,Heavy Rain,100,2013-05-21 00:04:00
7:24 PM,53.6,53.6,100,29.56,3.0,East,15.0,24.2,0.22,Rain,Rain,100,2013-05-21 00:24:00
7:45 PM,53.6,51.8,94,29.56,6.0,East,16.1,21.9,0.24,Rain,Light Rain,90,2013-05-21 00:45:00
7:53 PM,53.1,52.0,96,29.57,6.0,East,15.0,21.9,0.25,Rain,Light Rain,90,2013-05-21 00:53:00
8:14 PM,53.6,51.8,94,29.58,10.0,East,12.7,19.6,0.00,Rain,Light Rain,90,2013-05-21 01:14:00
8:53 PM,51.8,50.0,94,29.59,10.0,East,13.8,23.0,N/A,Rain,Light Rain,100,2013-05-21 01:53:00
9:53 PM,51.1,48.9,92,29.62,10.0,East,11.5,19.6,0.00,,Overcast,90,2013-05-21 02:53:00
10:22 PM,50.0,48.2,94,29.60,10.0,East,8.1,23.0,N/A,,Overcast,80,2013-05-21 03:22:00
10:53 PM,50.0,48.9,96,29.62,10.0,East,10.4,-,N/A,,Overcast,80,2013-05-21 03:53:00
11:53 PM,50.0,48.0,93,29.62,10.0,East,8.1,-,N/A,,Overcast,80,2013-05-21 04:53:00